Wind_Speed
16 15 13 12 13 13 14 14 14 14 15 16 18 19 21 22 23 23 23 23 23 23 23 22 23 24 25 26 27 26 26 25 24 23 22 21 20 21 21 22 23 23 24 24 24 25 27 28 31 33 35 38 41 43 45 47 49 51 53 55 56 58 60 62 64 65 66 68 69 70 70 71 73 76 79 81 81 79 76 75 73 71 69 69 68
17 15 14 13 14 15 16 16 16 16 17 17 18 19 21 21 22 22 22 22 22 22 22 23 23 24 25 26 26 26 25 25 24 23 22 21 20 21 21 22 22 23 24 24 25 26 27 29 32 34 36 39 42 44 47 48 50 52 55 57 59 60 62 63 65 67 69 70 72 73 73 73 75 78 82 84 84 83 81 80 78 75 72 71 70
17 15 14 14 15 16 17 18 18 18 18 19 19 20 21 22 22 22 22 22 22 23 23 23 24 25 26 26 26 26 26 25 24 23 22 21 21 21 21 22 22 23 24 24 25 27 28 31 33 35 37 40 43 46 48 49 51 53 56 58 60 62 64 65 67 69 71 72 73 75 76 77 77 80 84 87 88 87 84 83 82 79 76 74 73
17 16 15 15 15 16 18 19 19 19 19 20 20 20 21 21 22 22 22 22 22 23 23 24 25 26 26 27 27 27 26 25 24 23 22 22 21 21 22 22 22 23 24 25 26 28 29 32 34 36 38 41 44 47 50 51 52 54 56 59 61 63 65 67 69 70 73 75 76 77 78 80 81 82 85 88 90 90 88 85 84 83 81 79 77
18 17 16 16 16 16 18 19 19 19 19 19 20 20 20 20 20 20 21 21 22 24 24 25 26 26 27 27 27 27 26 24 24 23 22 22 21 22 22 22 23 23 24 26 27 29 30 32 35 37 40 42 45 48 50 52 53 55 57 59 62 64 67 69 71 72 74 77 79 81 82 83 84 85 87 89 91 93 92 90 87 85 84 83 81
19 19 18 17 16 16 17 18 18 18 19 19 19 19 19 19 19 20 21 22 23 24 25 26 26 26 27 27 27 26 25 24 23 23 23 22 22 22 23 23 23 24 25 27 28 30 31 33 36 39 41 43 45 48 51 53 55 56 58 60 62 65 68 71 72 73 75 78 81 83 84 85 87 88 90 92 93 93 94 94 92 89 87 86 84
20 20 19 18 17 17 17 18 18 18 18 18 18 18 18 18 19 20 22 23 24 24 25 26 26 26 27 27 27 26 25 24 23 23 22 22 22 23 23 24 24 25 26 28 29 31 33 35 38 40 42 44 46 48 51 54 56 57 59 61 63 66 70 72 73 75 77 80 83 85 86 87 88 89 91 94 95 95 95 95 94 93 90 88 85
21 20 20 19 18 17 18 18 18 18 18 17 17 17 17 18 19 21 22 23 24 24 26 26 27 27 27 28 27 27 26 24 23 22 21 22 22 23 24 24 25 26 27 29 30 32 34 36 39 41 43 44 46 48 51 54 57 58 60 62 64 67 71 73 74 76 78 81 84 86 88 88 88 90 92 94 95 96 96 96 95 94 92 89 85
21 21 20 20 18 18 18 19 18 18 17 17 17 17 18 19 20 21 22 23 24 25 26 27 28 28 28 28 28 26 25 23 23 22 22 22 22 23 24 25 26 27 28 30 31 33 35 37 40 42 43 44 46 47 50 54 57 58 60 62 65 68 72 73 74 76 79 81 84 87 89 89 89 89 91 93 95 97 98 97 96 94 91 89 86
22 22 21 20 19 19 19 19 18 18 18 18 19 19 19 19 20 21 23 24 26 26 27 28 29 29 29 28 27 26 24 22 22 22 22 23 23 23 24 25 26 27 29 31 33 34 36 39 41 43 44 45 46 48 50 53 56 59 60 62 65 69 72 73 74 76 79 82 84 86 88 89 89 89 90 93 96 98 98 97 96 94 91 88 86
23 22 21 20 19 19 19 19 19 19 19 20 20 20 20 20 21 22 24 25 27 27 27 28 29 29 28 27 26 25 23 21 21 22 22 23 24 24 24 25 26 28 29 31 33 35 37 40 42 44 45 47 48 49 51 54 57 59 61 63 65 69 72 74 74 75 78 82 84 85 88 89 89 89 91 92 95 98 99 98 96 94 90 87 85
23 23 22 21 20 20 21 20 20 20 20 21 21 21 21 22 23 24 25 26 27 27 27 28 30 28 26 25 25 23 22 21 21 22 23 24 24 24 25 26 27 28 29 31 34 36 38 41 43 45 47 48 50 51 53 55 58 60 62 64 66 69 72 74 74 74 77 80 83 85 87 89 89 89 90 92 94 97 99 99 97 94 90 86 84
23 24 23 22 21 21 22 21 21 21 21 21 22 22 23 24 25 25 26 27 27 27 27 29 30 28 24 23 23 22 20 21 21 22 23 24 24 25 26 27 27 28 30 32 34 37 39 41 43 45 48 50 51 52 54 56 59 61 63 65 67 69 72 74 74 74 76 79 82 85 87 88 89 90 91 92 94 97 98 99 98 95 91 87 84
25 26 25 24 22 22 22 22 22 22 22 22 22 23 24 25 26 26 26 28 28 27 27 28 29 27 23 21 21 20 19 20 22 22 23 24 25 26 27 27 28 29 31 33 35 37 39 41 44 46 49 51 53 54 56 58 60 62 64 66 68 70 73 73 74 74 76 79 83 85 87 88 89 90 90 92 94 97 98 98 98 96 92 88 85
27 27 26 25 24 23 22 22 22 22 23 24 24 24 25 26 27 27 27 28 29 28 27 26 27 27 23 21 20 19 19 20 23 23 23 24 26 27 27 28 29 31 33 34 36 38 40 42 45 47 50 53 55 57 58 59 61 63 65 67 69 71 72 73 73 74 76 79 83 85 87 89 90 90 91 92 94 97 98 99 98 96 92 89 85
28 27 26 26 25 23 22 22 22 23 24 25 26 26 26 27 27 27 27 28 29 29 27 25 25 25 24 22 21 20 20 21 23 25 24 25 26 27 28 29 31 33 35 36 37 39 41 43 46 49 51 54 56 58 60 61 63 65 66 68 71 72 73 73 74 76 78 81 84 86 88 90 90 91 91 92 94 97 99 99 99 96 92 88 84
26 25 25 25 24 24 23 23 24 24 26 27 27 28 28 28 28 28 28 29 29 28 27 25 24 24 24 23 22 22 22 22 24 26 26 26 28 29 30 32 33 35 37 38 39 40 42 45 48 50 53 55 58 60 62 63 64 66 68 70 72 73 74 74 76 78 80 83 85 88 90 90 91 91 92 93 95 97 98 99 98 96 92 87 84
25 25 25 25 25 24 24 24 25 26 27 28 29 29 29 29 29 29 29 29 29 28 27 26 25 23 23 24 24 24 24 25 26 28 28 28 29 31 32 34 36 38 38 39 40 42 44 47 49 51 54 57 59 61 63 64 66 67 69 71 73 74 75 75 77 79 82 85 87 90 91 91 92 92 93 94 96 97 98 98 97 96 92 87 83
25 26 25 25 25 25 25 26 26 27 28 29 30 31 31 30 30 31 31 30 28 28 27 26 25 25 24 25 25 25 26 27 27 29 30 30 31 33 34 36 38 39 39 39 41 43 45 48 50 52 55 57 60 62 64 65 67 68 70 71 73 75 75 76 78 80 84 86 88 91 91 91 92 92 93 95 97 98 98 98 97 95 92 87 83
26 27 26 26 26 26 27 27 27 28 30 31 32 33 32 32 32 32 31 29 27 27 27 26 26 26 26 26 27 28 29 29 30 31 32 33 34 35 36 37 39 39 39 40 42 44 46 48 51 53 55 57 59 61 63 65 67 68 70 72 74 75 76 77 79 82 85 87 89 91 91 91 92 93 94 96 97 98 98 98 96 94 91 88 83
27 28 27 27 27 28 28 28 29 31 32 33 34 34 34 34 34 34 31 28 26 27 26 26 26 26 27 28 29 30 31 32 32 33 34 36 36 37 37 38 38 39 40 42 44 45 47 49 51 54 55 57 59 61 62 64 66 68 70 72 74 75 76 78 80 83 85 87 89 90 91 91 92 93 94 96 98 98 98 97 95 93 90 87 83
27 28 28 28 29 29 30 31 32 34 35 35 35 35 36 37 36 34 31 28 26 26 27 27 27 27 28 29 30 31 32 33 34 35 36 38 39 38 37 37 38 40 42 44 45 47 48 49 52 54 56 58 60 61 63 64 66 68 70 72 74 76 77 78 81 84 86 88 89 90 91 91 92 94 95 97 98 99 98 96 94 91 88 86 82
27 28 28 29 30 31 32 33 35 36 36 36 36 37 38 38 37 33 30 28 27 27 28 29 29 29 29 30 32 32 33 34 36 37 38 40 40 39 37 38 40 42 44 45 47 48 49 51 53 55 57 60 62 63 64 65 67 68 70 72 74 76 78 80 82 84 87 88 88 89 90 91 93 94 95 97 98 99 98 96 93 90 87 85 82
28 29 30 31 33 34 34 35 36 37 37 37 38 39 39 38 36 33 30 29 30 30 30 31 31 31 31 32 33 34 35 36 38 39 40 42 41 39 39 40 42 44 46 47 48 50 51 52 54 56 58 61 63 65 66 68 69 70 71 73 76 78 79 81 83 85 87 88 88 89 90 92 93 94 95 97 98 98 97 95 93 90 86 83 81
30 32 32 33 34 35 35 36 36 37 38 39 40 40 39 37 35 33 32 32 32 33 32 33 33 33 33 34 35 36 37 38 40 41 42 42 41 41 41 43 44 46 48 48 50 51 53 54 56 58 60 62 64 66 68 70 72 73 74 76 78 79 80 82 84 85 87 88 88 89 91 92 93 94 95 97 97 97 96 94 91 89 86 82 79
32 34 34 35 36 36 36 37 38 38 39 40 40 39 37 36 35 34 34 35 35 35 35 35 35 35 35 36 36 38 39 40 41 42 42 43 43 43 44 45 46 48 49 50 52 53 55 57 59 60 61 63 65 67 69 72 75 76 78 78 79 80 81 82 84 86 87 88 88 90 91 92 93 94 95 96 96 95 94 92 90 87 84 82 79
34 35 36 36 37 37 38 39 39 40 40 40 39 37 36 36 36 36 36 37 37 37 37 37 37 37 38 38 39 40 41 42 42 42 43 45 45 46 46 47 49 50 52 53 54 56 58 60 62 63 64 65 67 68 70 73 76 79 80 81 81 81 82 83 85 86 88 88 89 90 91 92 93 94 94 95 94 93 92 90 88 85 83 81 78
35 36 37 37 38 39 40 40 41 40 39 38 37 37 36 36 37 37 38 38 39 39 40 40 40 40 41 41 42 43 43 43 43 44 45 47 47 48 49 50 51 53 54 55 57 60 62 63 65 67 68 69 70 71 73 75 78 80 81 82 82 83 83 84 86 87 88 89 90 91 92 93 93 94 93 93 92 91 89 87 85 83 81 79 78
36 37 38 39 39 40 41 41 40 40 39 38 38 37 38 38 38 39 40 40 41 42 42 43 43 43 43 44 45 46 46 45 46 46 48 49 50 51 52 53 54 55 56 58 60 62 64 66 67 69 70 72 74 75 76 77 79 81 82 83 84 84 85 86 87 88 89 90 91 92 92 93 93 93 92 91 90 89 87 85 83 82 79 78 77
37 38 39 39 40 40 40 40 40 40 39 39 40 40 40 41 41 42 42 43 44 44 45 45 45 46 46 47 48 48 48 48 49 49 50 51 52 53 54 55 56 57 59 61 63 65 67 68 70 71 72 74 76 78 78 79 80 82 83 85 86 87 88 88 89 89 90 91 92 92 92 92 92 92 90 89 87 86 84 83 81 80 78 77 75
36 37 38 38 39 39 40 40 40 41 41 42 42 43 43 43 44 44 45 46 46 47 48 48 48 48 49 49 50 51 51 52 52 53 53 53 54 55 57 58 59 60 62 64 65 67 68 69 71 73 74 75 77 78 79 80 82 83 85 86 88 89 90 90 90 90 91 92 93 93 92 91 91 89 88 86 85 83 82 80 79 78 77 76 74
35 36 37 38 38 39 40 41 42 42 43 44 44 45 45 46 47 47 48 49 50 51 52 51 51 51 51 52 53 54 55 55 56 56 57 57 59 60 61 62 63 63 65 66 68 69 71 71 73 75 76 76 78 79 81 82 84 85 86 87 89 90 91 91 91 91 92 93 93 93 92 90 88 87 85 84 83 81 80 79 77 77 76 75 73
36 37 38 39 40 41 43 44 45 45 46 46 47 48 48 49 49 50 51 51 51 53 54 54 53 53 54 55 56 57 58 58 59 60 62 63 64 65 66 67 67 68 69 70 71 72 74 74 76 77 78 78 80 82 84 85 86 87 88 89 90 91 92 92 92 92 93 93 93 92 91 88 86 85 83 81 80 80 79 78 76 75 75 74 73
38 39 40 41 43 44 45 47 48 48 49 50 50 50 51 51 51 51 52 52 54 55 57 57 57 57 58 59 60 61 62 63 64 66 67 69 70 71 71 72 73 73 74 75 75 76 77 77 79 80 81 82 83 85 86 87 88 88 89 90 91 92 92 92 92 93 93 93 93 91 89 86 84 82 81 79 79 78 78 77 75 74 73 72 72
39 41 41 42 45 46 47 48 49 50 51 52 52 53 53 53 53 54 54 56 58 59 60 61 62 62 63 64 65 66 67 68 69 71 72 73 74 75 76 77 77 78 79 80 80 80 81 81 82 83 84 85 86 87 87 88 88 90 91 92 93 93 93 93 93 94 94 93 92 90 87 84 82 81 80 78 77 77 76 75 74 73 72 71 71
40 42 43 44 46 48 49 51 52 52 53 55 56 57 58 58 58 59 59 60 63 64 65 66 68 69 69 69 70 71 72 73 74 74 75 76 77 78 79 80 81 82 82 83 83 83 84 85 85 86 86 87 87 88 88 89 90 91 93 94 94 93 93 94 94 94 94 93 91 88 85 83 81 80 79 77 76 75 74 74 73 72 71 70 69
46 47 48 50 52 53 54 56 57 56 57 59 60 61 62 63 63 64 65 65 67 68 69 71 72 73 74 74 75 75 76 76 77 77 78 78 79 80 80 81 82 83 83 84 84 85 86 86 87 87 87 88 88 88 90 91 92 93 94 95 95 95 94 95 95 95 94 92 89 87 84 82 80 78 77 76 74 73 72 72 71 71 70 69 69
49 50 51 53 56 57 58 60 62 63 63 64 64 65 66 67 68 69 70 70 71 72 73 74 75 76 76 77 78 79 79 80 80 80 80 81 81 82 83 83 84 85 85 86 86 87 88 88 88 88 89 89 90 91 92 93 94 95 96 96 96 96 96 96 96 95 93 90 87 85 83 81 79 77 76 74 73 72 71 70 70 70 69 68 68
54 56 57 59 61 63 64 65 66 67 68 68 69 69 70 71 72 73 74 74 75 75 76 76 77 78 78 79 80 81 82 83 83 84 84 85 85 86 86 87 88 88 89 90 91 91 91 91 91 91 91 92 93 93 94 95 96 97 98 98 98 98 98 98 97 94 92 89 86 84 82 80 78 76 75 73 71 70 70 69 69 69 68 67 67
62 64 65 66 66 67 68 69 69 70 71 72 73 73 74 74 75 76 77 78 78 79 79 80 80 81 81 82 83 84 85 86 87 88 88 89 89 89 90 91 92 93 94 94 95 95 95 95 95 95 95 95 95 96 97 97 98 99 99 99 99 99 99 99 97 94 91 88 86 84 82 80 78 76 74 73 71 69 69 68 68 68 67 67 66
68 69 70 70 70 70 70 71 71 72 73 74 75 77 78 78 79 80 80 81 82 82 83 83 84 85 85 86 87 88 89 90 90 91 92 93 93 94 95 96 96 97 98 98 99 99 99 100 99 99 99 98 99 99 99 100 100 100 101 101 101 101 100 98 96 93 90 87 86 84 82 81 78 76 74 73 71 70 69 68 68 67 67 66 65
73 74 75 75 75 74 74 74 74 75 76 77 78 80 81 82 83 84 84 85 85 86 87 87 88 89 89 90 91 91 92 93 94 95 96 97 98 99 100 100 101 102 102 102 103 103 103 103 103 102 102 101 102 102 102 102 102 102 102 102 102 102 100 97 94 92 89 87 86 84 83 81 79 77 75 74 72 70 69 68 67 66 66 65 64
79 80 81 81 80 80 79 79 80 80 81 82 83 84 85 86 86 87 88 89 89 90 91 92 93 93 94 94 95 96 97 98 99 100 101 102 102 103 104 105 105 105 106 107 107 107 107 106 105 105 104 104 104 104 104 104 104 104 104 103 102 101 98 96 94 92 89 87 86 84 83 82 80 78 76 75 74 72 70 68 67 66 65 64 63
86 86 86 85 85 85 85 85 86 86 87 88 88 89 90 90 90 91 91 92 93 94 95 96 97 98 98 99 100 101 102 102 103 104 105 106 107 107 108 108 109 109 110 110 110 110 109 108 108 107 107 107 107 107 107 107 106 105 104 102 101 99 97 96 94 92 90 87 86 84 83 82 81 79 77 76 74 73 70 68 67 65 64 63 62
91 90 90 89 89 90 90 90 91 91 92 93 94 95 94 94 94 94 95 95 96 97 98 99 100 101 102 103 104 105 106 107 107 108 109 109 110 111 111 112 112 113 113 113 112 112 111 111 110 110 109 110 110 110 109 108 106 104 102 101 99 98 96 95 94 92 90 87 85 84 83 82 81 79 77 76 74 73 71 68 66 64 63 61 60
93 94 94 94 94 95 95 95 96 96 97 98 99 99 99 98 99 99 99 100 101 101 102 103 104 105 106 107 108 109 109 110 111 111 111 112 113 113 114 114 115 114 114 114 113 113 113 112 112 112 112 112 111 110 109 107 105 103 101 99 98 96 95 94 93 91 90 87 85 83 82 81 80 78 77 75 74 72 70 68 65 63 61 60 59
96 97 97 98 98 99 100 100 100 101 101 102 102 102 102 102 103 103 103 104 105 105 106 107 108 109 109 110 111 112 112 113 113 114 114 115 115 116 116 115 115 115 115 114 114 114 113 113 113 113 113 112 111 110 108 106 103 101 99 97 96 95 94 92 91 90 88 86 84 82 80 79 79 77 76 75 73 71 69 67 64 62 60 58 57
98 99 100 101 102 102 103 103 104 104 104 104 105 105 105 106 106 106 106 107 107 108 109 110 111 111 112 113 114 115 115 116 116 116 116 116 116 116 115 115 115 115 115 115 115 115 115 114 114 113 112 111 109 107 105 103 101 99 97 95 94 93 91 90 88 87 86 84 82 80 78 78 77 75 74 73 72 70 68 66 63 60 58 56 55
101 102 103 103 104 105 106 106 107 107 108 108 108 108 109 109 109 109 110 110 111 111 112 113 113 114 115 115 116 116 116 116 116 116 115 115 114 114 114 114 114 114 115 115 115 115 114 114 113 112 111 109 107 105 103 101 99 97 95 93 91 90 88 86 85 83 82 81 79 78 76 75 74 73 72 71 69 67 66 64 61 59 57 55 53
105 106 106 107 108 108 109 110 111 111 112 112 112 112 112 113 113 113 113 114 114 115 115 115 115 115 115 115 115 114 114 114 114 114 114 114 113 113 113 113 113 113 114 114 113 113 112 111 109 108 107 105 104 103 101 99 97 96 94 92 90 88 85 84 82 81 79 78 76 75 73 72 70 69 68 67 66 65 63 62 60 57 55 54 52
109 110 111 111 112 112 113 113 114 114 114 115 115 115 115 115 115 115 115 115 115 115 115 114 114 114 113 113 112 112 112 112 113 113 114 114 114 113 113 112 111 110 109 109 109 108 107 106 105 104 102 101 100 99 98 96 95 94 92 90 88 86 84 82 81 79 78 76 74 72 70 68 67 66 65 64 63 61 60 59 58 56 54 52 51
Wind_Direction
235 238 241 248 254 257 257 256 256 259 263 264 265 266 266 267 267 269 270 272 275 278 281 284 287 290 291 292 291 292 293 294 295 297 298 301 305 308 313 317 320 322 325 328 328 329 332 333 336 338 340 342 344 344 345 345 346 347 347 347 348 349 349 350 350 351 352 353 352 352 352 351 351 352 353 354 354 355 355 354 353 351 349 346 344
236 239 243 250 256 259 260 258 257 257 260 262 265 266 267 268 269 271 273 276 279 282 284 287 289 290 290 290 290 290 291 292 293 294 295 298 302 306 310 314 318 321 324 325 325 326 329 331 333 336 338 340 341 342 342 343 344 345 345 346 347 347 348 348 349 350 351 352 352 352 351 351 351 352 353 354 355 355 355 354 353 352 350 348 345
237 239 244 251 257 261 262 260 258 258 258 261 264 267 269 271 273 275 278 280 283 286 288 290 291 291 290 290 289 289 289 289 290 292 293 295 299 303 307 311 314 318 321 321 322 324 326 328 330 333 336 338 339 339 340 340 341 343 344 345 345 346 346 347 347 349 349 351 351 351 351 351 351 352 353 354 355 355 355 354 353 352 351 350 347
238 240 245 251 257 261 262 261 260 259 260 262 265 268 272 274 277 279 282 285 288 290 292 293 292 291 290 289 288 288 288 288 289 290 291 293 297 300 303 307 311 315 318 318 319 321 323 325 327 330 333 335 336 337 338 338 339 341 342 343 344 344 345 345 346 348 349 350 350 351 351 351 351 352 353 354 354 354 354 354 354 353 352 350 349
240 242 246 252 258 261 261 260 260 260 261 264 267 270 274 277 280 283 287 290 293 294 294 293 291 290 289 288 288 287 287 288 289 290 291 293 296 298 301 304 308 312 314 315 317 319 320 322 325 328 330 332 334 335 336 337 337 339 340 341 342 343 344 345 346 347 348 349 350 350 351 351 351 352 353 354 354 353 352 353 354 354 352 351 349
241 243 247 252 257 259 260 259 260 261 263 266 269 272 275 279 283 288 292 294 295 296 294 292 290 289 289 289 289 289 289 290 291 291 292 294 295 296 298 301 305 309 312 314 316 317 318 321 323 326 328 330 332 333 335 336 336 337 338 340 341 342 343 344 345 347 348 349 350 350 350 350 350 351 352 352 353 353 352 352 354 354 353 351 350
238 241 246 251 254 257 259 260 261 263 265 267 270 273 277 283 288 292 295 296 296 295 293 292 290 290 290 291 291 291 291 291 293 293 293 294 294 295 297 300 304 308 311 314 316 316 317 319 322 325 328 329 330 331 333 334 335 336 337 339 340 341 342 344 345 347 348 349 350 350 350 350 350 350 350 351 351 352 352 353 353 353 353 351 350
235 239 245 250 252 255 258 260 261 263 265 268 271 276 281 287 292 295 296 296 294 292 291 290 290 291 292 293 293 292 292 293 294 294 294 294 293 295 297 300 304 308 312 315 316 316 317 319 322 326 328 328 329 330 331 333 334 335 337 338 339 340 341 343 345 347 348 348 349 350 349 349 349 349 349 349 349 351 352 353 353 353 352 350 349
233 237 242 247 251 254 257 258 259 261 264 269 274 280 284 289 294 296 296 295 293 291 291 291 291 292 294 294 294 293 293 294 295 294 293 293 293 294 297 300 304 309 313 315 316 317 318 320 324 326 328 329 329 329 330 332 333 334 336 337 338 339 340 342 344 346 347 348 349 349 349 348 349 348 347 347 348 350 351 352 352 352 351 350 349
231 236 240 245 249 252 253 255 257 260 265 271 277 282 286 290 294 296 295 294 292 292 294 294 293 293 294 295 295 294 294 294 294 294 293 292 292 294 297 301 306 310 314 316 317 318 319 322 325 327 328 328 329 330 331 332 332 334 335 336 337 338 339 340 343 345 347 347 348 348 348 348 348 347 346 346 347 349 350 351 351 351 351 350 349
230 234 237 241 245 248 250 253 257 262 267 273 278 282 286 290 293 293 294 293 293 294 295 294 292 292 293 294 294 293 293 293 292 292 292 291 292 294 298 303 308 312 316 318 319 320 322 323 325 326 327 328 329 331 332 332 332 333 335 336 336 337 338 339 341 344 346 346 346 347 347 347 346 345 345 346 347 348 349 350 350 350 350 349 349
230 233 236 238 241 245 249 252 258 264 269 274 279 283 287 290 291 292 293 293 294 296 295 293 291 291 293 294 291 290 290 289 289 290 290 290 292 296 300 305 309 314 318 320 321 322 323 325 326 326 326 327 330 332 332 332 333 333 334 335 336 336 337 337 339 343 345 345 345 346 346 346 345 345 345 345 346 347 348 348 349 349 349 349 349
232 234 235 236 239 244 247 251 258 265 270 275 280 285 288 290 291 292 293 293 293 294 293 292 291 292 294 292 289 288 289 290 291 291 291 292 295 298 302 306 312 317 320 322 323 323 324 325 326 325 325 327 330 331 332 332 333 333 334 335 335 336 335 336 338 341 343 344 344 345 345 344 344 344 344 344 345 346 347 348 348 348 349 349 349
233 234 235 237 240 244 248 252 259 266 272 277 280 284 288 290 292 292 292 292 292 291 290 290 291 292 293 290 287 288 292 294 294 294 294 295 297 299 303 309 314 319 321 323 323 323 324 326 326 326 326 328 330 332 332 333 333 333 333 334 335 335 335 335 337 339 341 343 344 343 343 343 343 344 344 344 344 345 346 347 347 347 348 349 349
232 235 237 240 243 246 250 254 261 267 273 277 280 284 287 290 292 290 289 291 291 290 289 289 290 291 292 288 286 291 296 296 293 292 293 295 297 300 306 312 316 319 322 323 323 323 324 326 327 327 327 329 330 331 332 333 332 332 333 334 335 335 334 334 335 337 341 343 343 342 342 342 343 343 343 343 344 345 345 346 346 347 347 348 348
235 239 242 245 248 251 253 258 263 269 273 277 281 285 288 290 291 289 289 290 290 290 289 289 288 289 290 287 287 293 296 293 289 289 291 296 300 304 309 313 317 320 322 323 322 321 323 326 328 329 329 329 330 331 332 332 332 332 332 333 334 334 333 333 334 337 341 343 342 341 341 341 342 342 342 342 343 344 345 345 346 346 347 348 348
241 245 249 252 255 256 258 262 267 272 275 279 282 286 288 289 290 290 289 290 290 290 289 288 286 285 285 286 288 293 295 293 292 292 294 299 304 307 311 315 317 319 321 322 321 320 323 327 329 329 329 330 330 331 331 332 331 331 332 332 333 333 332 333 335 339 341 342 341 340 340 340 340 341 341 341 342 343 344 344 345 345 346 347 348
245 249 252 254 256 259 262 266 271 273 277 281 284 286 288 290 290 290 292 292 292 290 289 287 285 283 282 284 288 293 295 295 296 297 299 303 306 309 312 315 317 319 320 321 320 320 323 327 328 329 329 330 331 331 331 331 331 331 332 332 332 332 332 333 337 339 341 341 340 339 338 339 339 339 340 340 341 342 343 343 344 344 345 347 348
248 252 254 255 257 260 263 267 270 273 278 283 285 286 288 290 291 292 294 294 291 288 285 283 283 283 284 286 289 292 294 295 297 298 301 304 307 310 313 315 317 318 319 320 320 322 324 326 327 328 329 330 330 330 331 331 331 331 331 331 331 331 332 334 338 339 340 340 338 337 337 337 338 338 339 339 340 341 342 343 344 344 344 345 348
249 251 253 255 257 260 263 266 269 275 281 285 285 287 289 291 293 294 294 291 287 283 280 280 282 284 286 288 291 293 294 296 298 301 303 305 307 310 313 316 316 317 319 320 321 322 324 326 327 327 329 330 330 330 331 331 332 332 332 332 332 332 333 336 338 339 338 337 336 335 335 336 337 337 338 338 339 340 341 342 343 343 344 344 347
247 251 254 255 256 260 263 267 271 277 282 284 285 287 290 291 293 293 291 287 281 278 278 279 281 283 286 288 290 292 294 297 299 302 303 304 306 310 313 315 315 316 318 320 320 322 324 325 326 326 328 329 329 329 330 331 332 333 333 332 332 332 334 336 338 337 336 335 334 334 334 335 335 336 337 337 338 339 340 341 342 343 343 344 346
251 254 256 256 258 261 265 269 273 277 280 282 283 286 288 289 291 290 286 281 277 276 277 278 280 282 285 287 289 291 293 296 298 300 301 302 306 310 312 313 314 316 318 319 320 321 323 325 325 325 326 327 328 328 330 331 332 333 333 332 332 333 335 336 337 335 334 333 333 333 333 334 334 335 335 336 337 338 338 340 341 342 342 343 345
254 256 257 258 260 264 267 271 274 276 278 280 283 285 287 288 288 285 281 277 274 273 275 277 279 281 283 286 288 290 293 295 297 299 301 304 306 309 311 312 313 315 317 318 318 320 322 323 323 324 325 326 326 327 328 330 331 332 332 332 332 333 335 336 335 333 331 331 331 332 332 333 333 334 334 335 336 336 337 338 339 341 342 343 344
255 256 257 259 262 265 268 270 272 276 279 282 283 285 286 286 283 279 275 273 272 272 273 276 278 281 284 286 289 291 293 295 297 300 303 305 306 307 309 310 312 314 315 316 318 319 320 321 322 323 324 325 325 326 328 329 330 331 331 332 332 334 335 334 332 330 329 329 330 330 331 331 332 333 333 334 334 335 336 337 338 339 341 342 344
255 257 259 261 264 266 268 271 274 277 280 282 283 284 283 281 278 275 273 272 272 273 275 276 279 282 284 287 289 291 294 296 298 301 303 304 304 305 307 309 310 312 313 315 317 317 318 320 321 322 323 323 324 325 327 328 329 329 331 332 333 334 333 331 330 328 328 328 329 329 330 330 331 332 332 333 333 334 335 336 337 338 340 342 344
256 259 262 264 266 268 270 272 275 278 279 281 281 279 277 275 274 273 273 273 274 275 277 279 281 283 285 287 289 291 293 296 299 300 301 302 303 304 305 307 309 310 312 314 315 316 317 318 319 320 321 322 323 324 326 327 327 328 330 332 332 332 330 329 327 327 327 327 328 328 329 329 330 331 331 331 332 333 334 335 336 337 339 341 343
260 262 264 266 267 269 272 274 276 278 279 279 278 276 274 272 272 273 274 275 276 278 280 282 283 285 287 288 289 291 293 296 297 298 299 300 302 303 304 306 307 309 311 312 313 314 316 317 318 318 319 320 322 324 325 326 327 328 330 331 330 329 328 326 326 326 326 327 327 327 328 329 329 329 330 330 331 332 333 333 335 336 338 340 342
262 263 265 267 269 271 273 275 277 278 278 277 275 273 272 272 272 273 274 275 277 279 281 282 284 285 286 288 290 291 293 294 295 295 297 299 300 302 303 304 306 307 309 311 312 313 315 316 316 317 318 320 321 322 324 325 326 327 328 328 327 326 325 325 325 326 326 326 326 327 327 328 328 328 329 329 330 331 332 333 334 335 337 339 341
262 264 266 268 270 272 273 275 276 276 275 274 272 271 271 271 271 272 274 275 277 278 280 281 283 284 286 288 289 291 291 292 292 294 296 298 300 301 303 304 305 307 308 309 310 312 313 314 315 316 318 319 320 321 323 325 325 325 325 324 324 324 324 324 325 325 325 325 326 326 327 327 327 327 328 329 329 330 331 332 333 334 336 338 340
267 268 269 271 272 273 274 274 273 272 271 271 270 270 270 270 271 272 274 276 277 278 280 281 283 285 286 288 289 290 290 290 291 293 295 297 299 301 302 303 305 306 307 308 309 310 311 313 314 315 317 318 319 321 323 323 323 322 322 322 322 323 323 324 324 324 324 324 325 325 326 326 326 326 327 328 328 329 330 331 332 333 335 337 339
270 271 272 272 273 273 272 271 271 270 270 270 270 270 271 271 273 274 276 278 280 281 282 283 284 286 287 288 289 289 289 290 291 293 295 297 298 299 299 301 302 303 304 305 306 307 309 310 312 313 315 316 318 319 320 320 319 319 320 320 321 321 322 323 323 323 323 323 324 324 324 325 325 325 326 327 327 328 329 330 331 332 334 336 338
273 274 274 275 275 274 274 274 273 273 273 273 274 274 275 275 276 278 279 281 282 282 283 283 285 286 287 288 289 289 289 290 292 293 295 295 296 297 297 298 299 300 301 302 303 305 306 307 309 310 312 314 315 315 315 315 316 316 317 318 319 320 321 321 322 322 322 322 323 323 323 324 324 324 325 326 326 327 328 329 330 331 332 334 336
278 278 278 278 278 277 277 277 277 277 277 278 278 279 279 279 279 280 281 282 282 282 283 284 286 287 288 288 289 289 289 290 291 292 294 294 295 296 297 297 298 298 299 300 301 302 304 305 306 308 309 310 311 311 312 312 313 314 315 316 318 318 319 320 321 321 321 321 322 322 322 323 323 323 324 325 325 326 327 328 329 330 331 333 335
276 277 276 277 278 278 278 279 279 279 279 279 280 280 279 279 280 281 282 283 282 283 284 286 287 287 288 288 289 289 289 290 291 292 293 294 295 296 296 297 297 298 299 299 300 301 302 303 304 305 306 307 308 309 310 311 312 313 314 315 316 317 318 319 319 320 320 320 320 321 321 321 322 322 322 323 324 324 325 326 327 328 329 331 333
271 272 273 275 276 277 278 278 279 280 280 281 281 280 280 280 281 282 283 283 283 284 285 286 286 286 287 287 287 288 288 289 290 291 292 293 294 295 296 297 298 298 299 299 299 300 300 301 302 303 304 305 306 307 308 309 310 311 313 314 315 316 317 317 318 319 319 319 319 319 319 320 320 320 321 322 323 323 323 324 325 326 328 329 331
266 269 271 272 274 275 276 277 278 279 280 282 282 282 282 282 283 283 283 284 284 284 285 285 286 286 286 287 287 288 288 289 289 290 291 292 293 295 295 296 297 297 298 299 299 300 300 301 302 302 303 304 305 306 307 308 309 311 312 313 314 315 315 316 317 317 318 318 317 317 317 318 319 319 319 320 321 321 322 322 323 325 326 328 329
262 265 268 270 271 272 273 275 275 276 276 278 279 280 282 282 282 282 282 282 283 284 285 285 286 286 287 288 288 288 288 289 289 290 291 291 292 293 294 294 295 296 297 297 298 299 300 301 301 302 302 303 304 305 306 307 309 310 311 312 313 313 314 315 316 316 316 316 315 315 315 316 317 317 318 318 319 319 320 321 322 323 324 326 327
262 263 265 267 269 270 271 272 274 275 275 275 276 277 279 280 280 281 281 282 282 283 284 284 285 286 286 287 287 287 288 288 288 289 289 290 291 292 292 294 294 295 295 297 298 300 300 301 301 302 302 303 304 305 306 307 308 309 310 311 312 312 313 314 314 314 314 314 313 313 314 314 315 315 315 316 317 318 318 319 320 321 322 324 325
262 264 266 267 269 270 271 272 273 275 275 276 276 276 277 278 279 280 281 281 281 282 282 282 283 284 284 285 286 286 287 287 288 288 289 290 291 292 293 293 294 295 296 298 299 300 301 301 301 302 302 303 304 305 306 307 308 308 309 310 310 311 311 312 312 312 312 312 312 312 312 312 313 313 314 314 315 316 317 318 318 319 320 322 323
263 266 268 269 270 271 272 273 274 275 275 276 277 277 277 277 278 278 279 280 280 281 281 282 282 283 284 284 285 285 286 287 287 288 289 290 290 291 292 293 294 296 297 298 299 300 300 301 301 302 302 303 304 304 305 306 307 307 308 308 308 309 309 310 310 310 310 310 310 310 310 311 311 312 312 312 313 314 315 316 316 317 318 319 320
264 267 268 269 270 271 272 273 274 275 276 277 277 278 278 278 279 279 279 280 280 281 281 282 283 283 284 284 285 285 286 286 287 288 288 289 290 291 292 294 295 296 297 298 299 299 300 300 301 301 302 303 303 304 305 305 306 306 306 306 307 307 307 308 308 308 308 308 308 308 309 309 310 310 311 311 312 312 313 313 314 314 315 316 317
266 269 269 270 271 272 273 273 275 276 277 278 279 279 279 279 280 280 280 280 281 281 282 282 283 283 284 284 285 285 286 286 287 288 289 290 291 292 294 295 295 296 297 298 298 299 299 299 300 300 301 302 302 303 303 304 304 304 304 305 305 305 305 306 306 306 306 306 307 307 307 308 308 309 309 309 309 310 310 311 311 311 312 313 314
266 268 269 270 272 273 274 275 276 277 278 279 280 281 281 280 280 280 281 281 281 282 282 283 283 284 285 285 286 286 287 288 289 290 291 291 292 293 294 295 295 296 296 297 297 297 298 298 298 299 300 300 301 301 302 302 302 302 303 303 303 303 304 304 304 304 305 305 305 305 306 306 306 306 307 307 307 307 307 308 308 308 309 309 310
266 268 269 270 272 273 274 275 276 277 278 279 281 282 282 281 281 281 281 282 282 282 283 284 284 285 285 286 287 287 288 289 289 290 291 292 292 293 293 294 294 294 295 295 295 296 296 297 297 298 299 299 300 300 300 300 301 301 301 301 302 302 302 303 303 303 303 303 303 304 304 304 303 303 304 304 304 304 304 304 304 305 305 306 307
266 268 269 270 271 272 273 274 275 276 277 278 279 280 281 280 280 280 281 281 281 282 282 283 284 284 285 286 286 287 288 288 289 290 291 291 292 292 292 292 293 293 293 294 294 295 295 296 296 297 297 298 298 298 299 299 299 299 300 300 300 300 301 301 301 301 301 301 301 301 301 301 300 300 301 300 300 300 301 301 301 301 302 302 303
267 268 269 270 271 271 272 273 274 274 275 277 278 278 278 279 279 279 280 280 281 281 282 282 283 284 284 285 286 286 287 288 288 289 289 290 290 290 291 291 291 292 292 293 293 294 294 295 296 296 297 297 297 297 297 298 298 298 298 298 298 298 299 299 299 299 299 299 298 298 298 298 298 297 297 297 297 297 297 297 297 298 298 299 299
267 268 269 269 270 271 272 272 273 274 275 276 276 277 277 278 278 279 279 280 280 281 282 282 283 283 284 285 285 286 287 287 288 288 288 289 289 289 289 290 290 291 291 292 292 293 294 294 295 295 295 296 296 296 296 296 296 296 296 296 296 297 297 296 296 296 296 296 296 296 295 295 295 295 294 294 294 294 294 294 294 294 295 295 296
266 267 268 269 270 271 271 272 273 274 275 276 276 277 277 278 278 279 279 280 280 281 281 282 283 283 284 285 285 286 286 286 287 287 287 287 288 288 289 289 290 290 291 292 292 293 293 294 294 294 294 294 294 294 294 294 294 294 294 294 294 294 294 294 294 293 293 293 293 293 293 292 292 292 292 291 291 291 291 291 291 291 291 292 292
267 268 268 269 270 271 272 273 274 275 275 276 277 277 278 278 279 279 280 281 281 281 282 282 283 283 284 284 284 284 285 285 285 286 286 286 287 288 288 289 290 290 291 291 292 292 292 292 292 293 293 293 293 293 293 293 293 293 293 293 293 292 292 292 292 291 291 291 291 291 290 290 289 289 289 288 288 288 288 288 288 288 288 288 289
268 269 270 271 271 272 273 274 274 275 276 276 277 278 278 279 280 280 281 281 281 282 282 282 282 282 282 283 283 283 284 284 285 286 286 287 288 288 289 289 289 290 290 290 290 290 290 291 291 291 291 291 291 291 291 292 292 292 292 292 292 291 291 291 291 290 290 290 289 289 288 288 287 286 286 285 285 285 285 285 284 284 284 285 285
269 269 270 271 271 272 273 273 274 275 275 276 277 278 278 279 279 280 280 280 280 281 281 281 282 282 282 283 283 284 285 285 286 286 287 287 288 288 288 288 288 288 288 288 288 289 289 289 289 289 289 289 289 289 290 290 290 291 291 291 291 291 291 291 291 290 290 289 288 288 287 286 285 284 284 283 282 282 281 281 281 281 281 281 282
Height
10678 10678 10678 10678 10678 10678 10677 10677 10677 10677 10677 10677 10676 10676 10676 10676 10675 10675 10675 10674 10673 10672 10671 10670 10669 10668 10667 10666 10665 10664 10662 10660 10658 10656 10655 10653 10651 10649 10647 10645 10643 10642 10640 10637 10634 10631 10629 10626 10623 10620 10616 10613 10609 10606 10601 10597 10592 10588 10583 10578 10574 10568 10563 10558 10552 10546 10541 10535 10529 10523 10517 10511 10504 10497 10489 10480 10471 10463 10455 10447 10439 10431 10421 10411 10401
10676 10676 10676 10676 10675 10675 10675 10675 10675 10674 10674 10674 10674 10674 10673 10673 10673 10672 10672 10671 10670 10669 10669 10668 10666 10665 10664 10663 10662 10660 10659 10657 10655 10653 10652 10650 10648 10646 10644 10642 10641 10639 10636 10634 10631 10628 10626 10623 10620 10617 10613 10610 10606 10602 10598 10593 10589 10584 10579 10574 10570 10565 10559 10554 10547 10541 10536 10530 10523 10516 10511 10505 10498 10490 10481 10472 10464 10455 10448 10439 10431 10423 10415 10405 10395
10674 10674 10674 10673 10673 10673 10673 10672 10672 10672 10672 10672 10671 10671 10671 10671 10670 10670 10669 10668 10668 10667 10666 10665 10663 10662 10661 10660 10659 10657 10655 10654 10652 10650 10649 10647 10645 10644 10642 10640 10638 10636 10633 10631 10628 10625 10623 10620 10617 10613 10610 10606 10603 10599 10595 10590 10586 10581 10576 10571 10566 10561 10555 10550 10544 10537 10530 10525 10519 10511 10504 10498 10492 10484 10474 10465 10457 10450 10443 10435 10425 10415 10407 10398 10388
10671 10672 10671 10671 10671 10670 10670 10670 10669 10669 10669 10669 10669 10669 10668 10668 10668 10667 10667 10666 10665 10664 10663 10662 10660 10659 10658 10657 10655 10654 10652 10650 10649 10647 10646 10644 10642 10641 10639 10637 10635 10633 10630 10628 10625 10623 10620 10617 10614 10610 10607 10603 10599 10595 10591 10587 10582 10578 10573 10568 10562 10557 10551 10545 10539 10533 10526 10518 10512 10506 10499 10491 10485 10478 10469 10460 10450 10442 10437 10431 10421 10409 10398 10389 10381
10669 10669 10669 10669 10668 10668 10667 10667 10667 10667 10667 10666 10666 10666 10666 10665 10665 10665 10664 10663 10662 10661 10660 10659 10657 10656 10655 10653 10652 10650 10649 10647 10645 10644 10642 10641 10640 10638 10636 10634 10632 10630 10627 10625 10622 10620 10617 10614 10611 10607 10604 10600 10596 10592 10588 10583 10579 10574 10569 10564 10559 10553 10547 10541 10535 10528 10522 10514 10507 10499 10492 10484 10476 10469 10463 10455 10447 10436 10427 10421 10415 10405 10392 10381 10373
10667 10667 10667 10666 10666 10665 10665 10665 10665 10664 10664 10664 10664 10664 10663 10663 10663 10662 10661 10660 10659 10658 10657 10655 10654 10653 10651 10650 10648 10647 10645 10644 10642 10641 10639 10638 10637 10635 10633 10631 10629 10627 10625 10622 10620 10617 10614 10611 10608 10604 10601 10597 10593 10589 10585 10580 10575 10570 10565 10560 10555 10549 10542 10536 10530 10523 10517 10510 10502 10494 10486 10478 10470 10463 10455 10448 10442 10435 10425 10414 10405 10397 10388 10377 10366
10664 10664 10664 10664 10663 10663 10663 10663 10662 10662 10662 10662 10662 10661 10661 10661 10660 10659 10659 10657 10656 10655 10654 10652 10651 10650 10648 10647 10645 10644 10642 10641 10640 10638 10637 10635 10634 10632 10630 10628 10626 10624 10622 10619 10617 10614 10611 10608 10605 10601 10598 10594 10590 10586 10581 10577 10572 10566 10561 10555 10550 10544 10538 10531 10524 10517 10511 10504 10496 10489 10481 10474 10465 10456 10449 10441 10435 10430 10422 10412 10400 10391 10382 10372 10362
10661 10662 10662 10661 10661 10661 10660 10660 10660 10660 10660 10660 10660 10659 10659 10659 10658 10657 10656 10655 10654 10652 10651 10649 10648 10647 10645 10644 10643 10641 10639 10638 10636 10635 10634 10632 10630 10629 10627 10625 10623 10621 10619 10616 10614 10611 10608 10605 10602 10598 10595 10591 10586 10582 10578 10573 10568 10562 10557 10551 10545 10540 10533 10527 10519 10512 10506 10499 10491 10484 10477 10470 10461 10451 10444 10438 10431 10424 10416 10408 10399 10390 10380 10370 10361
10659 10659 10659 10659 10658 10658 10658 10658 10658 10658 10658 10658 10658 10657 10657 10656 10655 10654 10653 10652 10650 10649 10648 10646 10645 10643 10642 10641 10639 10638 10637 10635 10633 10632 10630 10629 10627 10626 10624 10622 10620 10618 10616 10613 10611 10608 10605 10602 10599 10595 10591 10587 10583 10579 10574 10569 10564 10559 10553 10547 10541 10535 10529 10523 10516 10509 10502 10495 10489 10481 10473 10465 10458 10450 10442 10436 10429 10421 10412 10404 10396 10388 10379 10368 10358
10656 10656 10656 10656 10656 10656 10656 10656 10655 10655 10655 10655 10655 10655 10655 10654 10653 10652 10650 10649 10648 10646 10645 10643 10641 10640 10639 10638 10636 10635 10633 10632 10630 10628 10627 10625 10624 10623 10621 10619 10617 10615 10613 10610 10608 10605 10601 10598 10595 10591 10588 10584 10579 10575 10570 10565 10561 10555 10550 10544 10538 10532 10526 10520 10513 10506 10499 10492 10486 10480 10472 10463 10455 10449 10442 10434 10424 10416 10409 10402 10394 10386 10378 10368 10356
10653 10653 10653 10653 10653 10653 10653 10653 10653 10653 10653 10653 10653 10653 10652 10652 10651 10649 10648 10646 10645 10644 10642 10640 10638 10637 10636 10634 10633 10631 10630 10629 10627 10625 10624 10622 10621 10619 10618 10616 10614 10612 10610 10607 10604 10601 10598 10594 10591 10587 10584 10580 10575 10571 10566 10562 10557 10551 10546 10541 10534 10528 10523 10517 10510 10503 10496 10489 10483 10477 10470 10461 10454 10447 10440 10431 10422 10413 10405 10398 10391 10385 10377 10369 10357
10650 10651 10650 10650 10651 10650 10650 10650 10651 10651 10651 10650 10650 10650 10650 10649 10648 10647 10645 10643 10642 10641 10639 10636 10634 10633 10632 10631 10630 10628 10627 10625 10623 10622 10621 10619 10618 10616 10614 10613 10611 10609 10606 10604 10601 10598 10594 10591 10587 10583 10579 10576 10572 10567 10562 10558 10553 10548 10543 10537 10531 10525 10519 10513 10507 10501 10494 10488 10481 10475 10468 10461 10454 10446 10438 10429 10420 10411 10402 10394 10387 10380 10374 10365 10356
10648 10648 10647 10647 10647 10647 10647 10648 10648 10648 10648 10647 10647 10647 10647 10646 10645 10644 10642 10640 10639 10638 10636 10633 10631 10629 10629 10628 10626 10625 10624 10622 10620 10619 10618 10616 10615 10613 10611 10609 10607 10605 10603 10600 10597 10594 10591 10587 10584 10580 10575 10571 10568 10564 10559 10554 10549 10544 10539 10534 10528 10522 10516 10510 10504 10498 10493 10486 10478 10471 10465 10459 10451 10443 10434 10427 10418 10410 10401 10391 10382 10375 10369 10361 10351
10644 10644 10644 10644 10644 10644 10644 10645 10645 10645 10645 10644 10644 10644 10643 10643 10642 10640 10639 10637 10636 10634 10632 10630 10627 10626 10625 10625 10623 10622 10621 10619 10617 10616 10614 10613 10612 10610 10608 10606 10604 10601 10599 10596 10593 10590 10587 10584 10580 10576 10572 10567 10563 10559 10555 10551 10546 10540 10535 10530 10525 10519 10514 10507 10501 10495 10489 10483 10475 10468 10463 10456 10448 10440 10433 10424 10416 10407 10398 10390 10381 10372 10364 10355 10347
10641 10641 10641 10641 10641 10641 10642 10642 10642 10642 10641 10641 10641 10641 10640 10640 10638 10637 10635 10634 10632 10630 10629 10627 10624 10623 10622 10621 10620 10619 10618 10616 10614 10612 10611 10610 10608 10606 10604 10602 10600 10597 10595 10592 10589 10586 10583 10580 10576 10572 10568 10563 10559 10555 10551 10546 10542 10537 10531 10526 10521 10516 10510 10505 10499 10493 10486 10479 10472 10466 10460 10452 10444 10437 10430 10422 10413 10403 10394 10386 10378 10370 10361 10353 10344
10638 10639 10639 10639 10639 10639 10639 10639 10639 10639 10638 10638 10637 10637 10637 10636 10635 10633 10632 10630 10628 10626 10625 10624 10622 10620 10619 10618 10617 10616 10614 10613 10611 10609 10608 10606 10604 10602 10600 10598 10596 10593 10591 10588 10585 10582 10579 10576 10572 10568 10564 10559 10554 10550 10546 10542 10537 10532 10527 10522 10516 10511 10506 10500 10494 10487 10481 10475 10468 10460 10454 10447 10440 10433 10426 10419 10411 10402 10392 10383 10374 10366 10360 10352 10342
10636 10637 10637 10637 10636 10636 10636 10636 10636 10636 10635 10634 10634 10633 10633 10632 10631 10630 10628 10626 10625 10623 10622 10620 10619 10617 10616 10614 10613 10612 10610 10609 10607 10605 10604 10602 10600 10598 10596 10594 10592 10589 10587 10584 10581 10578 10575 10572 10568 10564 10560 10555 10550 10545 10541 10537 10532 10527 10522 10516 10511 10506 10501 10495 10487 10480 10474 10468 10462 10455 10448 10442 10435 10428 10421 10414 10407 10399 10390 10382 10373 10364 10357 10350 10340
10634 10635 10635 10634 10634 10633 10633 10633 10633 10632 10632 10631 10630 10630 10629 10628 10627 10626 10624 10623 10621 10620 10618 10617 10615 10614 10613 10611 10610 10608 10606 10605 10603 10601 10600 10598 10597 10594 10592 10590 10587 10585 10582 10580 10577 10573 10570 10567 10564 10560 10555 10551 10546 10541 10536 10532 10527 10522 10517 10511 10506 10500 10495 10489 10482 10475 10468 10462 10456 10449 10444 10438 10430 10423 10416 10409 10402 10395 10388 10380 10372 10362 10353 10346 10339
10632 10632 10632 10631 10631 10630 10630 10630 10629 10629 10628 10627 10626 10625 10625 10624 10623 10622 10621 10619 10618 10616 10615 10613 10612 10611 10610 10608 10606 10605 10603 10601 10600 10598 10596 10594 10593 10591 10588 10586 10583 10580 10578 10575 10572 10569 10566 10562 10559 10556 10551 10547 10542 10537 10532 10527 10522 10517 10512 10507 10501 10495 10489 10483 10476 10470 10464 10458 10451 10445 10439 10433 10427 10419 10412 10405 10398 10392 10385 10377 10369 10360 10350 10342 10336
10628 10628 10628 10628 10627 10627 10627 10626 10626 10625 10624 10623 10622 10621 10620 10620 10619 10618 10617 10616 10615 10613 10611 10610 10609 10608 10607 10605 10603 10601 10599 10597 10596 10594 10592 10590 10588 10586 10584 10582 10579 10576 10573 10571 10568 10564 10561 10558 10554 10551 10547 10543 10538 10533 10528 10523 10518 10513 10508 10502 10496 10491 10485 10478 10471 10465 10459 10454 10448 10442 10435 10429 10422 10415 10408 10401 10394 10388 10381 10374 10366 10358 10349 10340 10332
10624 10624 10624 10624 10624 10623 10623 10623 10622 10621 10620 10619 10619 10617 10616 10615 10614 10613 10613 10612 10611 10609 10608 10607 10606 10604 10603 10601 10599 10597 10595 10593 10592 10590 10588 10586 10584 10582 10580 10577 10575 10572 10569 10566 10563 10560 10557 10553 10549 10545 10542 10538 10534 10530 10525 10520 10514 10509 10503 10497 10491 10486 10480 10473 10466 10461 10456 10451 10445 10438 10432 10425 10418 10411 10404 10397 10390 10384 10377 10371 10364 10356 10347 10339 10331
10620 10620 10620 10620 10620 10619 10619 10619 10618 10617 10616 10615 10614 10613 10612 10611 10610 10609 10608 10608 10607 10605 10604 10602 10601 10600 10599 10597 10596 10594 10592 10590 10588 10586 10583 10581 10579 10578 10576 10573 10570 10567 10564 10561 10558 10555 10552 10549 10545 10540 10536 10532 10528 10524 10520 10516 10511 10505 10499 10493 10488 10482 10476 10469 10462 10457 10452 10447 10441 10434 10428 10421 10414 10407 10400 10393 10386 10379 10373 10367 10361 10354 10346 10337 10329
10616 10616 10616 10616 10616 10615 10615 10614 10613 10612 10612 10611 10610 10609 10608 10607 10606 10605 10604 10603 10602 10602 10600 10598 10597 10597 10595 10594 10592 10590 10587 10585 10583 10581 10579 10576 10574 10573 10571 10568 10565 10562 10559 10556 10553 10550 10547 10544 10540 10536 10532 10527 10523 10519 10515 10511 10507 10501 10496 10491 10484 10478 10471 10465 10459 10453 10448 10443 10437 10431 10424 10418 10411 10403 10396 10389 10382 10375 10369 10363 10357 10351 10344 10335 10326
10612 10612 10612 10612 10611 10610 10610 10610 10609 10608 10607 10607 10606 10605 10603 10602 10601 10601 10600 10599 10598 10597 10596 10595 10593 10592 10591 10589 10587 10585 10583 10581 10578 10576 10574 10571 10569 10567 10565 10562 10560 10556 10553 10550 10547 10544 10541 10538 10535 10531 10527 10522 10518 10513 10509 10505 10501 10497 10492 10487 10480 10473 10466 10460 10455 10450 10444 10438 10433 10427 10421 10414 10407 10400 10393 10386 10378 10371 10365 10359 10353 10347 10341 10334 10325
10607 10607 10607 10606 10606 10605 10605 10605 10605 10604 10603 10602 10601 10600 10599 10598 10597 10596 10595 10595 10594 10593 10592 10590 10589 10588 10586 10584 10582 10580 10578 10576 10573 10571 10568 10566 10563 10561 10559 10557 10554 10551 10547 10545 10542 10539 10536 10533 10529 10526 10522 10518 10513 10508 10504 10499 10494 10491 10487 10481 10474 10468 10462 10457 10452 10446 10440 10435 10429 10424 10417 10411 10404 10397 10390 10383 10376 10368 10361 10355 10350 10344 10338 10332 10325
10602 10602 10601 10601 10601 10600 10600 10600 10600 10599 10598 10597 10596 10595 10594 10593 10592 10591 10590 10590 10589 10587 10586 10585 10584 10582 10581 10579 10577 10575 10573 10571 10568 10565 10563 10560 10558 10556 10553 10551 10548 10545 10541 10539 10536 10532 10529 10526 10523 10520 10517 10513 10508 10504 10499 10493 10487 10482 10479 10475 10469 10464 10459 10453 10447 10442 10436 10430 10425 10420 10414 10407 10401 10394 10388 10380 10373 10366 10359 10352 10346 10341 10335 10328 10322
10597 10596 10596 10596 10596 10595 10595 10595 10594 10594 10593 10593 10591 10590 10589 10589 10588 10586 10585 10584 10583 10582 10581 10579 10578 10576 10575 10573 10571 10569 10568 10566 10563 10560 10557 10555 10553 10550 10548 10545 10542 10539 10536 10532 10529 10526 10523 10520 10516 10513 10510 10506 10502 10498 10493 10488 10481 10475 10471 10467 10463 10459 10455 10450 10444 10437 10431 10426 10421 10415 10409 10403 10397 10391 10384 10378 10371 10364 10357 10350 10344 10338 10332 10325 10319
10592 10591 10591 10591 10591 10590 10590 10589 10589 10589 10588 10587 10586 10585 10584 10583 10582 10581 10580 10579 10578 10576 10575 10573 10572 10571 10569 10567 10565 10564 10562 10560 10558 10555 10552 10549 10546 10544 10542 10539 10537 10533 10530 10526 10523 10519 10516 10513 10509 10505 10501 10498 10494 10491 10487 10482 10476 10470 10465 10461 10457 10454 10450 10445 10440 10433 10427 10421 10416 10411 10405 10398 10392 10386 10380 10374 10367 10361 10354 10347 10341 10335 10330 10323 10316
10587 10587 10587 10586 10586 10586 10585 10585 10584 10583 10582 10581 10581 10580 10579 10578 10577 10576 10575 10574 10572 10571 10569 10568 10566 10565 10563 10561 10559 10558 10556 10554 10551 10549 10546 10543 10541 10538 10535 10533 10530 10527 10524 10521 10517 10513 10509 10506 10502 10498 10494 10489 10485 10483 10480 10475 10470 10465 10461 10457 10453 10449 10445 10440 10434 10429 10422 10416 10411 10406 10401 10394 10388 10382 10376 10370 10363 10357 10350 10344 10338 10332 10327 10321 10315
10583 10583 10582 10582 10582 10581 10580 10580 10579 10578 10577 10576 10575 10574 10574 10573 10572 10571 10570 10568 10566 10565 10563 10562 10560 10558 10557 10555 10553 10551 10549 10547 10545 10543 10540 10538 10535 10532 10529 10526 10524 10521 10517 10514 10511 10507 10503 10499 10495 10491 10488 10483 10478 10475 10472 10468 10464 10460 10456 10451 10447 10443 10438 10434 10429 10423 10417 10411 10405 10401 10396 10390 10383 10377 10372 10365 10359 10353 10347 10341 10335 10329 10324 10319 10313
10577 10577 10577 10577 10576 10576 10575 10574 10573 10572 10572 10571 10570 10569 10568 10567 10566 10565 10563 10562 10560 10558 10556 10554 10553 10551 10550 10548 10546 10544 10542 10540 10538 10536 10534 10532 10529 10526 10523 10520 10518 10515 10512 10508 10504 10501 10497 10494 10490 10485 10482 10478 10473 10469 10466 10463 10459 10455 10451 10446 10441 10436 10432 10428 10423 10417 10411 10406 10400 10395 10390 10385 10379 10373 10367 10361 10355 10350 10344 10338 10332 10326 10321 10316 10311
10572 10571 10571 10571 10570 10570 10569 10568 10567 10566 10566 10565 10564 10563 10562 10561 10560 10558 10557 10555 10553 10550 10548 10547 10546 10544 10543 10541 10539 10537 10535 10533 10531 10529 10527 10525 10523 10520 10517 10514 10512 10509 10506 10502 10498 10494 10491 10488 10484 10479 10476 10473 10468 10464 10461 10457 10453 10449 10445 10440 10435 10430 10426 10421 10417 10411 10406 10400 10394 10389 10385 10380 10374 10368 10363 10357 10351 10345 10340 10335 10330 10324 10318 10313 10309
10566 10565 10565 10565 10564 10563 10563 10562 10561 10560 10559 10558 10558 10557 10556 10554 10553 10551 10549 10547 10545 10542 10540 10539 10539 10538 10536 10534 10532 10530 10528 10527 10525 10523 10520 10518 10515 10513 10510 10507 10505 10502 10499 10496 10492 10488 10484 10482 10477 10473 10470 10467 10463 10458 10454 10450 10446 10441 10437 10433 10429 10424 10419 10414 10410 10404 10399 10394 10388 10383 10379 10374 10369 10363 10358 10353 10347 10341 10336 10331 10326 10321 10316 10311 10306
10560 10559 10559 10558 10558 10557 10557 10556 10554 10554 10553 10551 10551 10549 10548 10547 10546 10544 10542 10540 10537 10534 10533 10532 10531 10530 10528 10526 10524 10523 10521 10520 10518 10515 10513 10510 10507 10505 10502 10499 10497 10495 10492 10489 10485 10481 10478 10474 10470 10466 10462 10460 10456 10451 10446 10442 10438 10433 10429 10425 10421 10417 10412 10407 10403 10398 10393 10387 10382 10377 10373 10369 10363 10358 10353 10348 10343 10337 10332 10327 10323 10318 10313 10308 10304
10554 10553 10553 10553 10551 10551 10550 10549 10548 10547 10545 10544 10543 10542 10540 10539 10538 10536 10535 10532 10529 10526 10526 10525 10523 10521 10520 10519 10517 10515 10513 10511 10510 10507 10505 10502 10499 10496 10493 10490 10488 10486 10483 10480 10477 10474 10470 10466 10462 10458 10454 10450 10447 10443 10438 10434 10430 10425 10421 10416 10413 10409 10405 10401 10396 10391 10386 10381 10376 10371 10367 10363 10358 10353 10348 10344 10339 10334 10328 10324 10319 10315 10310 10305 10301
10547 10547 10547 10546 10544 10544 10543 10541 10540 10540 10539 10537 10536 10534 10533 10532 10530 10529 10527 10525 10521 10519 10519 10517 10514 10512 10511 10510 10508 10506 10504 10502 10501 10499 10497 10494 10492 10488 10485 10482 10479 10476 10474 10471 10468 10464 10460 10457 10453 10449 10445 10442 10438 10434 10430 10426 10421 10417 10412 10408 10404 10401 10397 10393 10389 10384 10379 10374 10369 10364 10360 10357 10353 10348 10343 10339 10335 10330 10325 10320 10315 10311 10307 10302 10298
10541 10541 10540 10538 10537 10536 10535 10533 10532 10533 10532 10530 10529 10528 10526 10524 10523 10521 10519 10517 10514 10511 10510 10508 10506 10504 10502 10500 10498 10496 10495 10493 10491 10489 10487 10485 10483 10480 10477 10474 10471 10468 10465 10462 10459 10455 10451 10447 10444 10440 10437 10433 10429 10426 10421 10417 10413 10408 10404 10399 10395 10392 10389 10385 10381 10376 10372 10367 10363 10358 10354 10350 10347 10342 10338 10334 10330 10325 10321 10316 10311 10307 10303 10299 10295
10533 10533 10532 10531 10529 10528 10528 10526 10524 10523 10523 10522 10521 10520 10519 10516 10514 10512 10510 10509 10506 10503 10501 10498 10496 10494 10492 10490 10488 10486 10484 10482 10481 10479 10477 10475 10472 10470 10467 10464 10461 10459 10456 10452 10449 10446 10442 10438 10434 10431 10427 10423 10420 10416 10412 10408 10404 10399 10395 10390 10386 10383 10379 10376 10373 10369 10364 10360 10356 10351 10347 10344 10341 10337 10332 10329 10325 10321 10316 10312 10307 10303 10299 10296 10292
10524 10523 10523 10522 10521 10520 10519 10518 10516 10515 10514 10513 10512 10511 10510 10508 10505 10503 10501 10499 10496 10494 10491 10489 10486 10484 10482 10480 10478 10476 10473 10471 10469 10467 10465 10463 10461 10458 10455 10452 10449 10446 10443 10440 10437 10434 10430 10427 10423 10420 10417 10413 10410 10406 10402 10398 10394 10390 10385 10381 10377 10374 10370 10367 10364 10361 10356 10352 10348 10344 10340 10337 10334 10331 10327 10323 10320 10316 10312 10308 10304 10299 10296 10292 10289
10515 10514 10514 10513 10512 10510 10509 10508 10507 10505 10504 10503 10501 10500 10499 10498 10495 10493 10491 10488 10486 10484 10481 10479 10477 10474 10472 10470 10468 10465 10463 10460 10458 10455 10453 10451 10449 10447 10444 10441 10437 10434 10431 10428 10425 10422 10418 10415 10412 10408 10405 10402 10398 10395 10391 10388 10384 10380 10376 10372 10368 10364 10361 10358 10355 10352 10348 10344 10340 10336 10332 10329 10327 10324 10320 10316 10314 10311 10307 10303 10299 10295 10292 10288 10285
10506 10505 10504 10503 10502 10501 10499 10498 10497 10495 10494 10492 10491 10489 10488 10486 10484 10482 10480 10477 10475 10473 10471 10468 10466 10464 10462 10460 10457 10455 10452 10450 10447 10444 10442 10439 10437 10434 10431 10428 10425 10422 10419 10416 10412 10409 10406 10402 10399 10396 10393 10390 10387 10383 10380 10377 10374 10370 10366 10362 10358 10354 10351 10348 10345 10342 10339 10335 10331 10328 10324 10321 10318 10316 10313 10309 10307 10305 10302 10298 10295 10291 10288 10284 10281
10496 10495 10494 10492 10491 10490 10489 10488 10486 10485 10483 10482 10480 10479 10477 10475 10473 10471 10468 10466 10464 10462 10459 10457 10455 10453 10451 10448 10446 10443 10441 10438 10435 10432 10430 10427 10424 10421 10418 10415 10412 10409 10405 10402 10399 10396 10393 10390 10386 10383 10380 10378 10375 10372 10369 10366 10363 10359 10356 10352 10347 10343 10340 10337 10334 10332 10329 10326 10322 10319 10315 10312 10310 10308 10306 10302 10300 10298 10296 10293 10289 10287 10283 10280 10277
10485 10484 10482 10481 10480 10479 10478 10476 10475 10474 10472 10470 10469 10467 10465 10463 10461 10459 10457 10454 10452 10449 10447 10445 10443 10440 10438 10436 10433 10430 10427 10425 10422 10419 10416 10414 10411 10407 10404 10402 10399 10395 10392 10388 10385 10382 10380 10376 10373 10370 10368 10365 10362 10360 10357 10354 10351 10348 10344 10340 10336 10332 10328 10326 10323 10320 10318 10316 10313 10309 10306 10304 10301 10299 10298 10295 10292 10291 10289 10287 10284 10281 10279 10276 10273
10474 10472 10471 10470 10469 10467 10466 10465 10463 10462 10460 10458 10457 10455 10453 10451 10449 10447 10444 10442 10440 10437 10434 10432 10429 10427 10425 10423 10420 10417 10414 10411 10409 10406 10403 10400 10397 10393 10390 10387 10385 10381 10378 10375 10372 10369 10366 10363 10359 10356 10354 10351 10349 10346 10344 10341 10338 10336 10332 10328 10325 10321 10317 10314 10311 10309 10307 10306 10304 10300 10297 10295 10292 10291 10289 10287 10284 10283 10282 10280 10278 10276 10273 10271 10268
10462 10461 10460 10459 10457 10456 10454 10453 10451 10450 10448 10446 10444 10443 10440 10438 10436 10434 10432 10430 10428 10425 10422 10420 10417 10414 10411 10409 10407 10405 10402 10399 10396 10394 10391 10387 10384 10380 10377 10374 10370 10367 10364 10360 10357 10354 10351 10348 10345 10342 10339 10337 10335 10332 10330 10327 10325 10322 10319 10316 10313 10309 10306 10303 10300 10297 10295 10295 10294 10291 10288 10285 10283 10281 10280 10279 10277 10275 10273 10272 10271 10269 10268 10266 10263
10450 10449 10447 10446 10444 10443 10441 10440 10438 10437 10435 10433 10431 10429 10427 10425 10423 10421 10419 10417 10415 10413 10410 10407 10404 10402 10399 10396 10393 10391 10388 10385 10383 10380 10378 10375 10371 10367 10364 10360 10357 10353 10350 10346 10343 10339 10336 10333 10330 10327 10324 10322 10320 10317 10315 10313 10311 10308 10306 10303 10300 10298 10295 10292 10289 10286 10283 10282 10282 10281 10278 10276 10273 10272 10270 10269 10268 10266 10265 10264 10263 10262 10261 10260 10258
10437 10436 10434 10432 10430 10429 10427 10426 10425 10423 10421 10420 10418 10416 10414 10412 10410 10408 10406 10404 10401 10399 10396 10393 10390 10388 10385 10382 10379 10377 10374 10371 10368 10366 10363 10360 10356 10353 10349 10346 10342 10338 10335 10331 10328 10324 10321 10318 10315 10312 10310 10307 10304 10302 10299 10298 10296 10294 10292 10290 10287 10285 10282 10280 10277 10275 10272 10270 10270 10269 10268 10265 10263 10262 10260 10259 10258 10257 10256 10256 10255 10255 10254 10253 10252
10423 10422 10420 10418 10416 10415 10414 10412 10411 10409 10407 10405 10404 10402 10399 10397 10396 10394 10392 10390 10388 10386 10383 10380 10377 10374 10371 10368 10365 10362 10359 10356 10353 10350 10347 10344 10341 10337 10334 10330 10326 10322 10319 10315 10312 10308 10305 10302 10299 10296 10293 10291 10288 10286 10283 10281 10280 10278 10277 10275 10273 10271 10269 10267 10265 10263 10260 10258 10258 10258 10257 10255 10253 10252 10251 10249 10248 10248 10247 10247 10247 10247 10246 10246 10246
10409 10408 10406 10405 10403 10401 10400 10398 10396 10394 10392 10390 10388 10386 10384 10382 10380 10379 10377 10375 10373 10371 10369 10366 10363 10360 10357 10353 10350 10347 10343 10340 10337 10333 10330 10328 10325 10322 10319 10315 10312 10308 10304 10300 10296 10292 10289 10287 10283 10280 10276 10273 10271 10269 10267 10265 10263 10262 10261 10260 10259 10257 10255 10254 10252 10250 10248 10247 10246 10245 10245 10244 10243 10242 10240 10239 10238 10238 10238 10238 10238 10239 10239 10239 10239
10394 10393 10391 10390 10388 10386 10385 10383 10381 10379 10377 10375 10373 10371 10369 10367 10366 10364 10362 10360 10357 10355 10352 10350 10347 10344 10341 10338 10334 10331 10328 10325 10321 10317 10313 10311 10308 10306 10302 10300 10297 10294 10290 10285 10281 10277 10274 10271 10269 10266 10262 10259 10255 10253 10251 10249 10247 10246 10245 10244 10243 10242 10241 10239 10238 10237 10235 10234 10234 10233 10233 10232 10232 10231 10230 10229 10228 10228 10228 10228 10229 10230 10231 10231 10231
10379 10377 10375 10374 10372 10371 10369 10368 10366 10364 10362 10361 10359 10357 10355 10353 10351 10349 10346 10344 10341 10338 10335 10332 10329 10326 10323 10320 10318 10315 10312 10309 10305 10301 10297 10294 10291 10288 10285 10282 10280 10279 10276 10272 10268 10264 10260 10255 10252 10250 10248 10245 10242 10240 10237 10235 10233 10231 10230 10229 10228 10227 10226 10225 10224 10223 10222 10221 10221 10221 10221 10220 10220 10220 10219 10219 10218 10219 10219 10219 10220 10221 10222 10223 10223